W0ZMA Weather Reports


time (UTC)temp
C
wind
direction
speed
KPH
gust
KPH
rain 1hr
cm
rain 24hr
cm
rain mn
cm
humidity
%
barometer
mb
20260504234559 23 161 0.0 3.2 0.00 2.69 6.73 47 1008.1
20260504233106 24 150 0.0 6.4 0.00 2.69 6.73 46 1008.2
20260504231557 24 184 1.6 9.7 0.00 2.69 6.73 45 1008.3
20260504230104 25 96 1.6 14.5 0.00 2.69 6.73 45 1008.3
20260504224556 25 126 3.2 12.9 0.00 2.69 6.73 43 1008.3
20260504223100 25 184 6.4 17.7 0.00 2.69 6.73 44 1008.3
20260504221554 26 187 6.4 16.1 0.00 2.69 6.73 42 1008.3
20260504220053 26 121 1.6 14.5 0.00 2.69 6.73 44 1008.3
20260504214607 26 165 3.2 27.4 0.00 2.69 6.73 42 1008.3
20260504213109 26 146 4.8 20.9 0.00 2.69 6.73 40 1008.3
20260504211554 26 104 9.7 33.8 0.00 2.69 6.73 42 1008.2
20260504210050 26 155 3.2 17.7 0.00 2.69 6.73 43 1008.3
20260504204551 26 164 1.6 16.1 0.00 2.69 6.73 46 1008.4
20260504203047 26 190 4.8 17.7 0.00 2.69 6.73 44 1008.7
20260504201558 26 143 3.2 16.1 0.00 2.69 6.73 43 1008.8
20260504200044 26 149 3.2 27.4 0.00 2.69 6.73 42 1009.1
20260504194547 26 130 9.7 20.9 0.00 2.69 6.73 43 1009.3
20260504193037 26 165 3.2 20.9 0.00 2.69 6.73 45 1009.5
20260504191539 26 92 4.8 27.4 0.00 2.69 6.73 45 1009.8
20260504190033 26 126 6.4 17.7 0.00 2.69 6.73 47 1010.0
20260504184535 25 124 4.8 19.3 0.00 2.69 6.73 47 1010.1
20260504183030 25 237 4.8 19.3 0.00 2.69 6.73 47 1010.3
20260504181532 25 166 3.2 16.1 0.00 2.69 6.73 49 1010.4
20260504180025 25 282 3.2 14.5 0.00 2.69 6.73 47 1010.4
20260504174522 25 141 6.4 16.1 0.00 2.69 6.73 48 1010.6
20260504173019 25 138 3.2 16.1 0.00 2.69 6.73 49 1010.9
20260504171517 25 165 3.2 16.1 0.00 2.69 6.73 52 1011.0
20260504160105 22 223 1.6 11.3 0.00 2.84 6.73 57 1012.2
20260504110103 13 143 0.0 1.6 0.00 2.54 3.68 74 1012.2
20260504081543 13 162 0.0 8.0 0.00 2.54 3.68 68 1012.3
20260504050014 11 173 0.0 1.6 20.19 21.87 0.03 77 1013.9
20260504044512 11 173 0.0 0.0 16.99 18.52 18.52 80 1014.0
20260504043013 10 173 0.0 0.0 12.65 14.17 14.17 79 1014.2
20260504041512 11 173 0.0 0.0 5.13 6.68 6.68 78 1014.3
20260504040011 11 173 0.0 0.0 0.15 1.68 1.68 77 1014.4
20260504034519 11 173 0.0 0.0 0.00 1.52 1.52 74 1014.4
20260504033020 12 173 0.0 0.0 0.00 1.52 1.52 75 1014.4
20260504031510 12 173 0.0 0.0 0.00 1.52 1.52 69 1014.5
20260504030009 12 173 0.0 0.0 0.00 1.52 1.52 68 1014.4
20260504024528 12 173 0.0 0.0 0.03 1.52 1.52 69 1014.4
20260504023008 13 173 0.0 0.0 0.03 1.52 1.52 69 1014.3
20260504021508 12 173 0.0 0.0 0.03 1.52 1.52 70 1014.0
20260504020011 12 173 0.0 0.0 0.03 1.52 1.52 72 1014.0
20260504014506 13 173 0.0 0.0 0.00 1.50 1.50 72 1013.9
20260504013005 13 173 0.0 0.0 0.00 1.50 1.50 69 1014.1
20260504011504 14 173 0.0 0.0 0.00 1.50 1.50 64 1014.1
20260504010004 15 173 0.0 0.0 0.00 1.50 1.50 62 1014.0
20260504004508 16 173 0.0 0.0 0.00 1.50 1.50 56 1014.2
20260504003002 17 175 0.0 0.0 0.00 1.50 1.50 52 1014.2
20260504001502 18 175 0.0 0.0 0.00 1.50 1.50 47 1014.2
20260504000105 18 176 0.0 3.2 0.00 1.50 1.50 45 1014.4